Regional Weather Roundup
Issued by NWS Goodland, KS

Home | Current Version | Previous Version | Graphics & Text | Print | Product List | Glossary On
Versions: 1 2 3 4 5 6 7 8 9 10 11 12 13 14 15 16 17 18 19 20 21 22 23 24 25 26 27 28 29 30 31 32 33 34 35 36 37 38 39 40 41 42 43 44 45 46 47 48 49 50
269
ASUS43 KGLD 281608
RWRGLD

GOODLAND FORECAST AREA HOURLY WEATHER ROUNDUP
NATIONAL WEATHER SERVICE GOODLAND KS
1000 AM MDT WED JUN 28 2017

...OFFICIAL OBSERVATIONS...

CITY           SKY/WX    TMP DP  RH WIND       PRES   REMARKS
GOODLAND KS    SUNNY     78  52  40 N17       29.84F
HILL CITY KS   SUNNY     82  67  60 SW13G21   29.76F
IMPERIAL NEB   SUNNY     79  48  33 NW12      29.84R
MCCOOK NEB     SUNNY     81  56  42 NW12      29.78F
AKRON CO       SUNNY     74  41  30 NW9       29.93F
BURLINGTON CO  SUNNY     79  49  34 N15       29.89S
LIMON CO       SUNNY     76  43  30 N7        29.98F
$$

...UNOFFICIAL OBSERVATIONS...

CITY           SKY/WX    TMP DP  RH WIND       PRES   REMARKS
LENORA KS        N/A     80  32  17 MISG        N/A
NORTON KS      SUNNY     82  55  39 W12       29.76S
SHARON SPRINGS   N/A     77  59  53 NE12G18     N/A
TRENTON NEB      N/A     82  32  16 N7          N/A
KIT CARSON CO    N/A     80  47  31 MISG        N/A
YUMA CO        FAIR      73  39  29 N6        29.90F
$$




USA.gov is the U.S. government's official web portal to all federal, state and local government web resources and services.